Location: Buisson
(44.2787°N, 4.9969°E)
Time: 06:11:02
(UTC+00:00)

Cosmos 158 Rocket - Pass Details

Date: 18 April 2021
Orbit: 699 x 792 km, 74.0° (Epoch: 06 May)

Event Time Altitude Azimuth Distance (km) Brightness Sun altitude
Rises 01:34:58 0° 342° (NNW) 3,133 7.7 -29.0°
Reaches altitude 10° 01:37:22 10° 346° (NNW) 2,197 6.9 -28.7°
Maximum altitude 01:42:14 58° 66° (ENE) 823 4.3 -28.2°
Enters shadow 01:42:27 57° 78° (ENE) 827 4.3 -28.2°
